Location: High Cliff State Park
(44.1557°N, 88.2948°W)
Time: 04:11:44
(UTC-05:00)

Amateur Radio Satellites - All Passes

Search period start: 23 July 2016 03:41
Search period end: 24 July 2016 03:41
Location: High Cliff State Park, 44.1557°N, 88.2948°W

Satellite Date Start Highest point End Downlink Frequencies (MHz)
Time Altitude Azimuth
SWISSCUBE 23 Jul 03:42:44 03:45:37 16° 269° (W) 03:48:32 437.505
MOZHAYETS 4 23 Jul 03:48:26 03:53:04 79° 75° (ENE) 03:57:44
PCSat 23 Jul 03:48:45 03:52:10 17° 36° (NE) 03:55:35 145.827
KKS-1 23 Jul 03:49:10 03:53:36 81° 74° (ENE) 03:58:04 437.445
GONETS M04 23 Jul 04:01:49 04:10:22 59° 269° (W) 04:18:57
BEESAT 23 Jul 04:07:04 04:07:50 10° 272° (W) 04:08:36 436.000
AO-7 23 Jul 04:07:38 04:15:32 44° 99° (E) 04:23:20 29.400- 29.500
Cosmos 2499 23 Jul 04:09:33 04:17:33 67° 267° (W) 04:24:53 435.465 / 435.565
ITAMSAT 1 23 Jul 04:20:20 04:25:30 66° 288° (WNW) 04:30:37 435.822/435.867
STARS 23 Jul 04:41:11 04:45:29 56° 259° (W) 04:49:51 437.465
ISS 23 Jul 04:50:55 04:54:09 60° 28° (NNE) 04:57:23 145.825
DANDE 23 Jul 04:53:26 04:59:29 52° 98° (E) 05:04:03 436.750
CUBESAT XI-V 23 Jul 04:55:01 04:59:28 49° 72° (ENE) 05:03:56 437.345
BEESAT 2 23 Jul 04:57:48 05:01:48 75° 54° (NE) 05:05:47 435.950
BEESAT 3 23 Jul 05:01:27 05:05:20 54° 240° (WSW) 05:09:11 437.485
HORYU 2 23 Jul 05:03:37 05:07:06 22° 94° (E) 05:10:33 437.375
CUSAT 1 23 Jul 05:17:46 05:21:54 33° 283° (WNW) 05:25:12 437.405
MOZHAYETS 4 23 Jul 05:29:23 05:30:48 11° 272° (W) 05:32:14
KKS-1 23 Jul 05:30:14 05:30:44 10° 272° (W) 05:31:14 437.445
PCSat 23 Jul 05:31:04 05:36:31 75° 58° (ENE) 05:41:56 145.827
AO-7 23 Jul 06:00:28 06:08:20 47° 299° (WNW) 06:16:10 29.400- 29.500
NOAA 15 23 Jul 06:00:58 06:04:49 20° 92° (E) 06:08:38 137.62
LilacSat-2 23 Jul 06:01:04 06:02:01 11° 89° (E) 06:02:58 437.200
GONETS M04 23 Jul 06:03:52 06:05:10 10° 290° (WNW) 06:06:27
Cosmos 2499 23 Jul 06:06:33 06:08:50 11° 289° (WNW) 06:11:04 435.465 / 435.565
STRAND 1 23 Jul 06:08:27 06:12:25 23° 62° (ENE) 06:16:23 437.568
AIST 2 23 Jul 06:18:47 06:22:31 31° 46° (NE) 06:26:15 435.215
ISS 23 Jul 06:27:52 06:30:19 20° 225° (SW) 06:32:45 145.825
CUBESAT XI-V 23 Jul 06:33:56 06:37:07 18° 268° (W) 06:40:19 437.345
BEESAT 2 23 Jul 06:37:58 06:39:02 11° 252° (WSW) 06:40:08 435.950
DANDE 23 Jul 06:38:00 06:42:16 20° 287° (WNW) 06:45:48 436.750
Cubesat XI-IV 23 Jul 06:39:10 06:44:01 34° 96° (E) 06:48:49 437.490
HORYU 2 23 Jul 06:39:36 06:43:47 39° 291° (WNW) 06:47:56 437.375
GOMX 1 23 Jul 06:40:46 06:45:04 29° 95° (E) 06:49:35 467.674
RS-15 23 Jul 06:45:21 06:55:14 36° 105° (ESE) 07:05:32 29.354- 29.394
BRITE-PL 23 Jul 06:52:21 06:56:59 77° 103° (ESE) 07:02:00 437.365/2234.400
DOVE 4 23 Jul 06:57:51 07:01:44 22° 93° (E) 07:05:41 437.250
NOAA 18 23 Jul 07:00:42 07:06:07 51° 100° (E) 07:11:30 137.9125
CUTE-I 23 Jul 07:04:06 07:09:23 56° 101° (E) 07:14:37 437.470
O/OREOS (USA 219) 23 Jul 07:09:11 07:13:38 54° 63° (ENE) 07:18:05 437.305
PCSat 23 Jul 07:15:57 07:19:15 17° 256° (WSW) 07:22:33 145.827
LilacSat-2 23 Jul 07:32:52 07:36:42 60° 286° (WNW) 07:40:31 437.200
Cosmos 2491 23 Jul 07:33:37 07:39:27 19° 58° (ENE) 07:45:16 435.465 / 435.565
NOAA 15 23 Jul 07:39:47 07:44:55 55° 290° (WNW) 07:50:03 137.62
CINEMA 3 23 Jul 07:43:48 07:47:18 19° 91° (E) 07:50:47 145.822/145.860
STRAND 1 23 Jul 07:46:14 07:51:14 51° 260° (W) 07:56:17 437.568
AO-7 23 Jul 07:55:57 07:59:03 13° 322° (NW) 08:02:10 29.400- 29.500
AIST 2 23 Jul 07:57:17 08:00:58 31° 244° (WSW) 08:04:39 435.215
SEEDS 23 Jul 08:10:20 08:12:59 16° 91° (E) 08:15:36 437.485
PRISM 23 Jul 08:18:01 08:21:59 51° 72° (ENE) 08:25:57 437.425
GOMX 1 23 Jul 08:18:44 08:23:09 36° 290° (WNW) 08:27:50 467.674
Cubesat XI-IV 23 Jul 08:19:14 08:24:04 35° 294° (WNW) 08:28:51 437.490
COMPASS 1 23 Jul 08:30:32 08:33:30 19° 92° (E) 08:36:26 437.405
BRITE-PL 23 Jul 08:32:41 08:35:00 14° 298° (WNW) 08:37:22 437.365/2234.400
HO-68 23 Jul 08:33:44 08:40:40 47° 99° (E) 08:47:31 435.675
DOVE 4 23 Jul 08:34:45 08:39:36 50° 288° (WNW) 08:44:38 437.250
NOAA 18 23 Jul 08:42:00 08:46:27 25° 298° (WNW) 08:50:54 137.9125
CANX-2 23 Jul 08:42:46 08:46:58 59° 101° (E) 08:51:06 2200.000
ANTELSAT 23 Jul 08:43:57 08:44:07 10° 57° (ENE) 08:44:17 437.575/2403.000
CUTE-I 23 Jul 08:45:01 08:49:01 22° 299° (WNW) 08:53:02 437.470
SO-50 23 Jul 08:48:28 08:52:33 27° 114° (ESE) 08:56:38 436.795
O/OREOS (USA 219) 23 Jul 08:49:47 08:52:36 16° 260° (W) 08:55:24 437.305
RS-15 23 Jul 08:55:11 09:06:43 73° 309° (NW) 09:18:57 29.354- 29.394
CUTE 1.7 + AOD 2 23 Jul 08:57:06 09:01:20 75° 101° (E) 09:05:32 437.475
AAUSAT CUBESAT 2 23 Jul 09:02:53 09:06:39 33° 97° (E) 09:10:21 437.432
YUBILEINY 23 Jul 09:06:41 09:13:25 26° 80° (E) 09:20:11 435.215
UWE-3 23 Jul 09:09:10 09:13:05 26° 94° (E) 09:16:57 435.000/436.395/437.385
CINEMA 3 23 Jul 09:19:50 09:24:45 56° 287° (WNW) 09:29:39 145.822/145.860
ZACube-1 23 Jul 09:20:23 09:23:58 22° 93° (E) 09:27:28 437.345
CUBEBUG 2 23 Jul 09:21:06 09:25:45 50° 99° (E) 09:30:17 437.445
FUNcube-1 23 Jul 09:22:05 09:25:36 22° 92° (E) 09:29:03 145.935
TIGRISAT 23 Jul 09:23:06 09:26:42 23° 65° (ENE) 09:30:22 435.000
Cosmos 2491 23 Jul 09:29:00 09:37:48 82° 81° (E) 09:46:35 435.465 / 435.565
UNISAT 6 23 Jul 09:37:18 09:41:24 33° 68° (ENE) 09:45:35 437.425
SEEDS 23 Jul 09:44:55 09:48:56 45° 288° (WNW) 09:52:53 437.485
Cosmos 2504 23 Jul 09:52:15 09:57:12 17° 74° (ENE) 10:02:09 435.465 / 435.565
PRISM 23 Jul 09:55:25 09:57:36 14° 269° (W) 09:59:47 437.425
AUBIESAT-1 23 Jul 09:57:49 10:00:38 16° 96° (E) 10:03:28 437.475
DELFI C3 23 Jul 10:03:59 10:07:21 26° 95° (E) 10:10:42 145.870
COMPASS 1 23 Jul 10:05:21 10:09:13 38° 289° (WNW) 10:13:02 437.405
Oscar 11 23 Jul 10:10:20 10:14:41 75° 103° (ESE) 10:18:58 145.826/435.025
NANOSAT C BR1 23 Jul 10:12:50 10:14:29 12° 60° (ENE) 10:16:08 145.865
ANTELSAT 23 Jul 10:15:22 10:19:57 77° 76° (ENE) 10:24:40 437.575/2403.000
DUCHIFAT 1 23 Jul 10:19:00 10:20:59 13° 61° (ENE) 10:22:58 145.980
CANX-2 23 Jul 10:20:04 10:22:20 14° 298° (WNW) 10:24:35 2200.000
HO-68 23 Jul 10:21:43 10:28:13 38° 298° (WNW) 10:34:41 435.675
SO-50 23 Jul 10:28:10 10:32:51 45° 312° (NW) 10:37:30 436.795
QB50P1 23 Jul 10:30:58 10:34:00 19° 64° (ENE) 10:37:03 145.935-145.965
CUTE 1.7 + AOD 2 23 Jul 10:35:04 10:36:35 12° 299° (WNW) 10:38:04 437.475
POPSAT HIP 1 23 Jul 10:36:43 10:39:58 22° 65° (ENE) 10:43:14 437.405
AAUSAT CUBESAT 2 23 Jul 10:38:45 10:41:57 22° 294° (WNW) 10:45:07 437.432
UWE-3 23 Jul 10:45:22 10:49:35 34° 291° (WNW) 10:53:42 435.000/436.395/437.385
BUGSAT 1 23 Jul 10:52:24 10:54:17 13° 61° (ENE) 10:56:11 437.445
QB50P2 23 Jul 10:55:43 10:59:36 36° 69° (ENE) 11:03:30 145.880/145.840
ZACube-1 23 Jul 10:56:08 11:00:22 38° 290° (WNW) 11:04:30 437.345
FUNcube-1 23 Jul 10:57:45 11:01:59 39° 290° (WNW) 11:06:07 145.935
POLYITAN 1 23 Jul 10:58:20 11:02:14 36° 69° (ENE) 11:06:11 437.675
CUBEBUG 2 23 Jul 10:58:33 11:01:59 20° 297° (WNW) 11:05:22 437.445
TIGRISAT 23 Jul 10:58:47 11:03:07 41° 262° (W) 11:07:34 435.000
YUBILEINY 23 Jul 11:00:34 11:09:19 73° 280° (W) 11:18:12 435.215
M-CUBED/EXP-1 PRIME 23 Jul 11:00:41 11:05:20 80° 108° (ESE) 11:10:04 437.505
RS-15 23 Jul 11:11:24 11:21:46 33° 339° (NNW) 11:32:31 29.354- 29.394
HUMSAT D 23 Jul 11:13:49 11:18:04 80° 101° (E) 11:22:14 437.325/437.525
UNISAT 6 23 Jul 11:14:10 11:18:06 28° 265° (W) 11:22:08 437.425
Cosmos 2491 23 Jul 11:27:24 11:33:33 22° 282° (WNW) 11:39:43 435.465 / 435.565
CUBEBUG 1 23 Jul 11:28:41 11:30:53 13° 90° (E) 11:33:04 437.445
AUBIESAT-1 23 Jul 11:30:51 11:35:24 63° 292° (WNW) 11:39:59 437.475
DELFI C3 23 Jul 11:38:53 11:42:07 25° 292° (WNW) 11:45:21 145.870
Cosmos 2504 23 Jul 11:40:17 11:49:04 77° 95° (E) 11:57:57 435.465 / 435.565
NANOSAT C BR1 23 Jul 11:45:24 11:49:37 74° 258° (WSW) 11:53:53 145.865
Oscar 11 23 Jul 11:48:29 11:50:12 12° 300° (WNW) 11:51:55 145.826/435.025
DUCHIFAT 1 23 Jul 11:51:56 11:56:07 67° 259° (WSW) 12:00:22 145.980
ANTELSAT 23 Jul 11:55:34 11:57:15 12° 272° (W) 11:58:55 437.575/2403.000
JAS-2 23 Jul 11:56:29 12:02:26 50° 70° (ENE) 12:07:48 435.910
AISAT 23 Jul 11:58:43 12:02:28 25° 95° (E) 12:06:10 437.250
QB50P1 23 Jul 12:05:28 12:09:29 42° 262° (W) 12:13:33 145.935-145.965
POPSAT HIP 1 23 Jul 12:11:36 12:15:32 37° 262° (W) 12:19:31 437.405
SO-50 23 Jul 12:12:52 12:14:33 12° 333° (NNW) 12:16:14 436.795
DX 1 23 Jul 12:14:14 12:17:53 25° 95° (E) 12:21:31 434.975-435.025
ESTCUBE 1 23 Jul 12:14:48 12:19:15 61° 101° (ESE) 12:23:40 437.505/2401.250
BUGSAT 1 23 Jul 12:25:07 12:29:08 63° 258° (WSW) 12:33:15 437.445
QB50P2 23 Jul 12:32:13 12:35:29 22° 266° (W) 12:38:48 145.880/145.840
POLYITAN 1 23 Jul 12:34:53 12:38:09 21° 267° (W) 12:41:26 437.675
UKube-1 23 Jul 12:36:07 12:40:05 34° 98° (E) 12:44:01 .
Oscar 19 23 Jul 12:36:28 12:40:57 32° 66° (ENE) 12:45:28 437.125/150
M-CUBED/EXP-1 PRIME 23 Jul 12:36:42 12:39:17 15° 304° (NW) 12:41:53 437.505
50 SAT 23 Jul 12:38:21 12:41:58 72° 102° (ESE) 12:45:32 437.505
VELOX 1 23 Jul 12:50:15 12:54:43 84° 106° (ESE) 12:59:10 145.980
HUMSAT D 23 Jul 12:51:51 12:53:02 11° 300° (WNW) 12:54:12 437.325/437.525
TISAT 1 23 Jul 12:56:10 12:57:26 11° 89° (E) 12:58:41 437.305
YUBILEINY 23 Jul 13:02:41 13:07:55 17° 304° (NW) 13:13:12 435.215
CUBEBUG 1 23 Jul 13:03:13 13:07:33 61° 287° (WNW) 13:11:53 437.445
SPROUT 23 Jul 13:17:51 13:22:12 81° 103° (ESE) 13:26:32 437.525
AO-7 23 Jul 13:19:48 13:24:52 18° 45° (NE) 13:29:56 29.400- 29.500
Gurwin Techsat 1B 23 Jul 13:21:12 13:26:05 38° 67° (ENE) 13:30:58 435.225
RS-15 23 Jul 13:28:54 13:39:12 30° 14° (NNE) 13:49:38 29.354- 29.394
AISAT 23 Jul 13:34:58 13:38:57 33° 292° (WNW) 13:42:56 437.250
Cosmos 2504 23 Jul 13:36:09 13:43:21 27° 296° (WNW) 13:50:36 435.465 / 435.565
JAS-2 23 Jul 13:42:38 13:47:42 26° 265° (W) 13:52:23 435.910
DX 1 23 Jul 13:50:12 13:54:05 32° 292° (WNW) 13:57:58 434.975-435.025
ESTCUBE 1 23 Jul 13:52:56 13:55:34 16° 298° (WNW) 13:58:12 437.505/2401.250
AIST 1 23 Jul 13:59:40 14:03:51 60° 95° (E) 14:08:03
ITAMSAT 1 23 Jul 14:01:12 14:05:44 31° 65° (ENE) 14:10:18 435.822/435.867
SWISSCUBE 23 Jul 14:03:03 14:05:24 14° 89° (E) 14:07:45 437.505
UKube-1 23 Jul 14:12:29 14:15:58 24° 294° (WNW) 14:19:27 .
Oscar 19 23 Jul 14:15:36 14:20:13 34° 263° (W) 14:24:53 437.125/150
AO-85 23 Jul 14:22:18 14:26:48 28° 113° (ESE) 14:31:10 145.980
BEESAT 23 Jul 14:24:01 14:27:32 20° 93° (E) 14:31:00 436.000
VELOX 1 23 Jul 14:28:59 14:30:31 12° 301° (WNW) 14:32:03 145.980
TISAT 1 23 Jul 14:29:18 14:33:33 70° 285° (WNW) 14:37:47 437.305
ITUPSAT 1 23 Jul 14:43:43 14:47:56 30° 96° (E) 14:52:07 437.325
Cosmos 2499 23 Jul 14:56:02 15:02:16 22° 78° (ENE) 15:08:26 435.465 / 435.565
SPROUT 23 Jul 14:56:07 14:57:30 11° 300° (WNW) 14:58:53 437.525
Gurwin Techsat 1B 23 Jul 15:01:26 15:06:04 30° 265° (W) 15:10:44 435.225
AO-7 23 Jul 15:07:53 15:16:07 67° 66° (ENE) 15:24:25 29.400- 29.500
GONETS M04 23 Jul 15:08:54 15:16:28 35° 84° (E) 15:24:04
DANDE 23 Jul 15:31:30 15:33:30 19° 73° (ENE) 15:35:31 436.750
SWISSCUBE 23 Jul 15:38:56 15:43:42 70° 287° (WNW) 15:48:25 437.505
AIST 1 23 Jul 15:39:55 15:41:54 13° 293° (WNW) 15:43:51
KKS-1 23 Jul 15:40:06 15:42:26 14° 90° (E) 15:44:47 437.445
ITAMSAT 1 23 Jul 15:40:17 15:45:06 37° 263° (W) 15:49:57 435.822/435.867
SO-50 23 Jul 15:40:24 15:40:26 10° 24° (NNE) 15:40:28 436.795
RS-15 23 Jul 15:42:53 15:55:05 59° 45° (NE) 16:07:09 29.354- 29.394
MOZHAYETS 4 23 Jul 15:43:07 15:46:03 17° 91° (E) 15:48:57
CUSAT 1 23 Jul 15:48:11 15:50:48 40° 262° (W) 15:53:50 437.405
BEESAT 23 Jul 16:00:59 16:05:33 47° 290° (WNW) 16:10:06 436.000
AO-85 23 Jul 16:01:54 16:07:06 50° 310° (NW) 16:12:04 145.980
HORYU 2 23 Jul 16:03:00 16:06:40 25° 66° (ENE) 16:10:21 437.375
ITUPSAT 1 23 Jul 16:21:31 16:25:44 32° 293° (WNW) 16:29:55 437.325
Cubesat XI-IV 23 Jul 16:28:07 16:28:44 10° 53° (NE) 16:29:21 437.490
STARS 23 Jul 16:29:28 16:33:00 23° 94° (E) 16:36:32 437.465
BRITE-PL 23 Jul 16:31:20 16:31:42 10° 60° (ENE) 16:32:04 437.365/2234.400
Cosmos 2499 23 Jul 16:45:24 16:54:19 86° 277° (W) 17:03:09 435.465 / 435.565
CUTE-I 23 Jul 16:50:09 16:53:25 17° 58° (ENE) 16:56:40 437.470
NOAA 18 23 Jul 16:50:27 16:54:04 18° 58° (ENE) 16:57:42 137.9125
CUBESAT XI-V 23 Jul 16:52:43 16:53:37 10° 87° (E) 16:54:31 437.345
AO-7 23 Jul 17:02:25 17:09:27 29° 265° (W) 17:16:32 29.400- 29.500
GONETS M04 23 Jul 17:04:29 17:12:55 54° 285° (WNW) 17:21:27
KKS-1 23 Jul 17:14:58 17:19:25 62° 287° (WNW) 17:23:50 437.445
SO-50 23 Jul 17:17:55 17:22:17 37° 46° (NE) 17:26:31 436.795
MOZHAYETS 4 23 Jul 17:19:04 17:23:32 53° 288° (WNW) 17:27:58
NOAA 15 23 Jul 17:22:11 17:27:00 38° 67° (ENE) 17:31:49 137.62
HORYU 2 23 Jul 17:38:58 17:43:04 35° 263° (W) 17:47:12 437.375
AO-85 23 Jul 17:46:18 17:48:43 13° 330° (NNW) 17:51:02 145.980
GOMX 1 23 Jul 17:51:11 17:54:51 31° 68° (ENE) 17:58:36 467.674
RS-15 23 Jul 17:55:52 18:07:30 51° 249° (WSW) 18:18:59 29.354- 29.394
Cubesat XI-IV 23 Jul 18:02:27 18:07:45 64° 72° (ENE) 18:13:06 437.490
STARS 23 Jul 18:05:22 18:09:27 36° 291° (WNW) 18:13:31 437.465
BRITE-PL 23 Jul 18:05:24 18:09:35 80° 257° (WSW) 18:13:45 437.365/2234.400
DOVE 4 23 Jul 18:05:35 18:08:48 21° 64° (ENE) 18:12:08 437.250
LilacSat-2 23 Jul 18:15:46 18:19:38 80° 76° (ENE) 18:23:33 437.200
CUBESAT XI-V 23 Jul 18:26:59 18:31:36 82° 285° (WNW) 18:36:12 437.345
CUTE-I 23 Jul 18:27:25 18:32:48 79° 256° (WSW) 18:38:13 437.470
NOAA 18 23 Jul 18:28:34 18:34:05 76° 256° (WSW) 18:39:40 137.9125
Cosmos 2499 23 Jul 18:42:23 18:48:45 21° 299° (WNW) 18:55:03 435.465 / 435.565
PHONESAT 2.4 23 Jul 18:43:57 18:45:40 14° 154° (SSE) 18:47:23 2401.200-2431.200
CINEMA 3 23 Jul 18:47:19 18:50:26 19° 62° (ENE) 18:53:38 145.822/145.860
BEESAT 3 23 Jul 18:54:35 18:57:01 16° 111° (ESE) 18:59:28 437.485
SO-50 23 Jul 18:58:39 19:02:39 29° 246° (WSW) 19:06:33 436.795
NOAA 15 23 Jul 19:02:17 19:06:50 29° 265° (W) 19:11:24 137.62
HO-68 23 Jul 19:03:54 19:10:30 42° 63° (ENE) 19:17:09 435.675
SEEDS 23 Jul 19:04:00 19:06:26 15° 63° (ENE) 19:08:53 437.485
GONETS M04 23 Jul 19:09:45 19:12:12 11° 310° (NW) 19:14:41
YUBILEINY 23 Jul 19:14:33 19:18:43 14° 53° (NE) 19:22:51 435.215
COMPASS 1 23 Jul 19:23:10 19:25:52 17° 64° (ENE) 19:28:33 437.405
GOMX 1 23 Jul 19:29:41 19:33:01 23° 267° (W) 19:36:26 467.674
CANX-2 23 Jul 19:36:37 19:40:46 50° 73° (ENE) 19:44:56 2200.000
DOVE 4 23 Jul 19:42:20 19:46:15 38° 263° (W) 19:50:23 437.250
Cubesat XI-IV 23 Jul 19:44:40 19:48:16 18° 269° (W) 19:51:55 437.490
CUTE 1.7 + AOD 2 23 Jul 19:50:47 19:55:00 63° 75° (ENE) 19:59:15 437.475
AAUSAT CUBESAT 2 23 Jul 19:54:34 19:58:07 28° 68° (ENE) 20:01:40 437.432
STRAND 1 23 Jul 19:55:04 20:00:01 48° 99° (E) 20:04:57 437.568
UWE-3 23 Jul 20:07:28 20:11:14 26° 66° (ENE) 20:15:04 435.000/436.395/437.385
CUBESAT XI-V 23 Jul 20:07:31 20:08:12 10° 302° (WNW) 20:08:53 437.345
CUTE-I 23 Jul 20:13:10 20:13:41 10° 274° (W) 20:14:11 437.470
PCSat 23 Jul 20:14:04 20:19:17 50° 115° (ESE) 20:24:32 145.827
M-CUBED/EXP-1 PRIME 23 Jul 20:16:51 20:18:38 13° 54° (NE) 20:20:29 437.505
ZACube-1 23 Jul 20:17:35 20:21:04 22° 65° (ENE) 20:24:37 437.345
PHONESAT 2.4 23 Jul 20:18:50 20:21:41 35° 170° (S) 20:24:32 2401.200-2431.200
FUNcube-1 23 Jul 20:19:00 20:22:26 22° 65° (ENE) 20:25:55 145.935
CUBEBUG 2 23 Jul 20:20:13 20:24:36 49° 72° (ENE) 20:29:07 437.445
CINEMA 3 23 Jul 20:22:50 20:27:09 50° 261° (W) 20:31:42 145.822/145.860
BEESAT 2 23 Jul 20:28:15 20:32:13 85° 120° (ESE) 20:36:12 435.950
BEESAT 3 23 Jul 20:30:29 20:34:19 50° 309° (NW) 20:38:11 437.485
SEEDS 23 Jul 20:37:32 20:41:42 56° 260° (W) 20:45:53 437.485
Cosmos 2491 23 Jul 20:39:08 20:44:40 19° 76° (ENE) 20:50:13 435.465 / 435.565
AUBIESAT-1 23 Jul 20:45:11 20:48:04 21° 59° (ENE) 20:51:06 437.475
HO-68 23 Jul 20:51:27 20:58:11 42° 262° (W) 21:04:59 435.675
DELFI C3 23 Jul 20:51:40 20:54:38 20° 66° (ENE) 20:57:36 145.870
COMPASS 1 23 Jul 20:57:01 21:01:04 48° 261° (W) 21:05:08 437.405
Oscar 11 23 Jul 21:06:07 21:10:26 69° 75° (ENE) 21:14:47 145.826/435.025
YUBILEINY 23 Jul 21:08:53 21:17:41 62° 77° (ENE) 21:26:22 435.215
CANX-2 23 Jul 21:14:19 21:16:54 16° 269° (W) 21:19:31 2200.000
O/OREOS (USA 219) 23 Jul 21:22:59 21:27:15 46° 108° (ESE) 21:31:32 437.305
CUTE 1.7 + AOD 2 23 Jul 21:29:24 21:31:15 13° 271° (W) 21:33:07 437.475
AAUSAT CUBESAT 2 23 Jul 21:30:01 21:33:33 26° 265° (W) 21:37:06 437.432
Cosmos 2504 23 Jul 21:32:24 21:39:37 31° 66° (ENE) 21:46:21 435.465 / 435.565
PRISM 23 Jul 21:32:59 21:37:03 68° 102° (ESE) 21:41:08 437.425
STRAND 1 23 Jul 21:34:54 21:38:53 23° 297° (WNW) 21:42:51 437.568
UWE-3 23 Jul 21:43:23 21:47:31 35° 264° (W) 21:51:47 435.000/436.395/437.385
M-CUBED/EXP-1 PRIME 23 Jul 21:48:58 21:52:35 63° 254° (WSW) 21:56:33 437.505
ZACube-1 23 Jul 21:52:50 21:57:05 41° 263° (W) 22:01:26 437.345
FUNcube-1 23 Jul 21:54:07 21:58:24 42° 262° (W) 22:02:45 145.935
PHONESAT 2.4 23 Jul 21:55:01 21:57:56 38° 187° (S) 22:00:49 2401.200-2431.200
AIST 2 23 Jul 21:55:44 21:59:28 35° 117° (ESE) 22:03:16 435.215
PCSat 23 Jul 21:58:14 22:02:55 29° 314° (NW) 22:07:40 145.827
CUBEBUG 2 23 Jul 21:58:21 22:01:31 18° 270° (W) 22:04:45 437.445
HUMSAT D 23 Jul 22:05:57 22:10:12 66° 75° (ENE) 22:14:30 437.325/437.525
ANTELSAT 23 Jul 22:07:02 22:09:46 15° 90° (E) 22:12:27 437.575/2403.000
BEESAT 2 23 Jul 22:08:21 22:10:36 14° 323° (NW) 22:12:52 435.950
VELOX 1 23 Jul 22:16:37 22:17:23 10° 58° (ENE) 22:18:07 145.980
AUBIESAT-1 23 Jul 22:18:54 22:22:18 34° 258° (WSW) 22:25:59 437.475
DELFI C3 23 Jul 22:25:38 22:29:17 34° 263° (W) 22:32:56 145.870
CUBEBUG 1 23 Jul 22:26:29 22:28:50 15° 61° (ENE) 22:31:11 437.445
Cosmos 2491 23 Jul 22:31:29 22:40:13 89° 98° (E) 22:48:59 435.465 / 435.565
Oscar 11 23 Jul 22:45:25 22:47:02 12° 271° (W) 22:48:39 145.826/435.025
TIGRISAT 23 Jul 22:48:41 22:53:03 37° 97° (E) 22:57:18 435.000
AO-85 23 Jul 22:52:32 22:56:37 32° 44° (NE) 23:00:23 145.980
AISAT 23 Jul 22:57:35 23:01:18 28° 67° (ENE) 23:05:02 437.250
O/OREOS (USA 219) 23 Jul 23:03:30 23:06:53 21° 307° (NW) 23:10:17 437.305
UNISAT 6 23 Jul 23:03:34 23:08:11 57° 100° (E) 23:12:42 437.425
YUBILEINY 23 Jul 23:06:30 23:13:52 31° 278° (W) 23:21:12 435.215
ISS 23 Jul 23:07:17 23:10:28 52° 143° (SE) 23:13:39 145.825
PRISM 23 Jul 23:10:11 23:11:50 12° 299° (WNW) 23:13:29 437.425
DX 1 23 Jul 23:11:12 23:14:52 27° 67° (ENE) 23:18:31 434.975-435.025
ESTCUBE 1 23 Jul 23:15:29 23:19:56 67° 74° (ENE) 23:24:24 437.505/2401.250
50 SAT 23 Jul 23:17:11 23:20:38 38° 71° (ENE) 23:24:03 437.505
Cosmos 2504 23 Jul 23:25:25 23:33:34 60° 269° (W) 23:41:05 435.465 / 435.565
NANOSAT C BR1 23 Jul 23:29:25 23:32:06 16° 91° (E) 23:34:45 145.865
PHONESAT 2.4 23 Jul 23:31:52 23:34:00 17° 203° (SSW) 23:36:09 2401.200-2431.200
UKube-1 23 Jul 23:31:59 23:35:53 35° 69° (ENE) 23:39:50 .
AIST 2 23 Jul 23:34:27 23:38:01 27° 315° (NW) 23:41:36 435.215
DUCHIFAT 1 23 Jul 23:35:28 23:38:21 17° 92° (E) 23:41:13 145.980
ANTELSAT 23 Jul 23:42:16 23:46:53 60° 287° (WNW) 23:51:24 437.575/2403.000
HUMSAT D 23 Jul 23:44:32 23:46:16 12° 271° (W) 23:48:00 437.325/437.525
VELOX 1 23 Jul 23:48:44 23:53:06 88° 85° (E) 23:57:32 145.980
QB50P1 23 Jul 23:48:45 23:52:25 27° 95° (E) 23:56:04 145.935-145.965
TISAT 1 23 Jul 23:49:53 23:51:10 11° 60° (ENE) 23:52:28 437.305
POPSAT HIP 1 23 Jul 23:54:42 23:58:33 31° 96° (E) 00:02:21 437.405
CUBEBUG 1 24 Jul 00:00:22 00:04:37 61° 259° (W) 00:08:55 437.445
AIST 1 24 Jul 00:05:45 00:08:45 18° 70° (ENE) 00:11:45
BUGSAT 1 24 Jul 00:06:15 00:09:03 17° 92° (E) 00:11:51 437.445
SPROUT 24 Jul 00:12:30 00:16:45 74° 76° (ENE) 00:21:03 437.525
QB50P2 24 Jul 00:14:22 00:18:36 54° 100° (E) 00:22:47 145.880/145.840
POLYITAN 1 24 Jul 00:17:00 00:21:15 55° 100° (E) 00:25:28 437.675
TIGRISAT 24 Jul 00:25:44 00:29:32 25° 295° (WNW) 00:33:16 435.000
Cosmos 2491 24 Jul 00:32:04 00:38:20 21° 300° (WNW) 00:44:39 435.465 / 435.565
AO-85 24 Jul 00:33:10 00:37:01 31° 246° (WSW) 00:40:37 145.980
AISAT 24 Jul 00:33:51 00:37:42 30° 264° (W) 00:41:34 437.250
UNISAT 6 24 Jul 00:41:21 00:44:26 18° 298° (WNW) 00:47:29 437.425
ISS 24 Jul 00:44:02 00:47:01 32° 342° (NNW) 00:50:00 145.825
DX 1 24 Jul 00:47:11 00:50:58 29° 264° (W) 00:54:47 434.975-435.025
JAS-2 24 Jul 00:48:15 00:52:59 34° 97° (E) 00:57:59 435.910
50 SAT 24 Jul 00:52:17 00:54:26 15° 268° (W) 00:56:35 437.505
ESTCUBE 1 24 Jul 00:55:09 00:57:12 13° 271° (W) 00:59:15 437.505/2401.250
NANOSAT C BR1 24 Jul 01:03:57 01:08:05 49° 288° (WNW) 01:12:12 145.865
UKube-1 24 Jul 01:08:39 01:12:01 22° 266° (W) 01:15:25 .
DUCHIFAT 1 24 Jul 01:10:11 01:14:16 44° 289° (WNW) 01:18:19 145.980
SWISSCUBE 24 Jul 01:10:33 01:14:02 20° 63° (ENE) 01:17:31 437.505
GONETS M04 24 Jul 01:16:54 01:22:53 19° 59° (ENE) 01:28:51
TISAT 1 24 Jul 01:22:00 01:26:11 79° 257° (WSW) 01:30:26 437.305
QB50P1 24 Jul 01:24:26 01:28:10 29° 292° (WNW) 01:31:52 145.935-145.965
Cosmos 2504 24 Jul 01:24:27 01:24:53 10° 291° (WNW) 01:25:19 435.465 / 435.565
POPSAT HIP 1 24 Jul 01:30:39 01:34:13 26° 293° (WNW) 01:37:46 437.405
BEESAT 24 Jul 01:31:40 01:35:44 28° 66° (ENE) 01:39:47 436.000
Gurwin Techsat 1B 24 Jul 01:37:34 01:39:49 13° 88° (E) 01:42:04 435.225
BUGSAT 1 24 Jul 01:40:35 01:44:39 46° 289° (WNW) 01:48:43 437.445
AIST 1 24 Jul 01:42:28 01:46:33 42° 267° (W) 01:50:39
QB50P2 24 Jul 01:51:21 01:53:58 16° 297° (WNW) 01:56:36 145.880/145.840
ITUPSAT 1 24 Jul 01:51:41 01:56:12 42° 69° (ENE) 02:00:44 437.325
SPROUT 24 Jul 01:52:18 01:53:13 11° 272° (W) 01:54:07 437.525
POLYITAN 1 24 Jul 01:54:01 01:56:37 16° 298° (WNW) 01:59:13 437.675
ISS 24 Jul 02:21:32 02:24:07 21° 2° (N) 02:26:42 145.825
Oscar 19 24 Jul 02:24:46 02:29:57 75° 103° (ESE) 02:35:08 437.125/150
JAS-2 24 Jul 02:33:30 02:38:06 32° 294° (WNW) 02:42:53 435.910
Cosmos 2499 24 Jul 02:36:13 02:43:36 37° 70° (ENE) 02:50:25 435.465 / 435.565
KKS-1 24 Jul 02:39:40 02:42:27 17° 62° (ENE) 02:45:16 437.445
MOZHAYETS 4 24 Jul 02:46:23 02:49:45 20° 64° (ENE) 02:53:08
SWISSCUBE 24 Jul 02:46:48 02:51:28 51° 260° (W) 02:56:09 437.505
BEESAT 2 24 Jul 03:08:28 03:10:24 13° 35° (NE) 03:12:22 435.950
BEESAT 24 Jul 03:09:02 03:13:23 34° 263° (W) 03:17:46 436.000
BEESAT 3 24 Jul 03:09:13 03:12:11 20° 41° (NE) 03:15:07 437.485
AO-7 24 Jul 03:09:26 03:14:48 18° 89° (E) 03:20:07 29.400- 29.500
GONETS M04 24 Jul 03:12:20 03:21:12 84° 82° (E) 03:30:02
CUSAT 1 24 Jul 03:13:48 03:15:03 11° 93° (E) 03:16:13 437.405
Gurwin Techsat 1B 24 Jul 03:15:07 03:20:28 86° 285° (WNW) 03:25:47 435.225
PCSat 24 Jul 03:18:20 03:21:01 14° 32° (NNE) 03:23:41 145.827
STARS 24 Jul 03:27:34 03:31:09 25° 66° (ENE) 03:34:45 437.465
ITUPSAT 1 24 Jul 03:30:24 03:34:11 23° 266° (W) 03:38:00 437.325
